CAPE
0 0 0 0 0 0 0 0 3 5 4 0 0 0 0 0 0 0 0 0 0 0 0 46 53 31 56 128 103 39 18 71 13 3 1 1 3 5 4 4 5 5 3 2 1 1 2 0 0
0 0 0 0 0 0 0 0 6 8 9 2 0 0 0 0 0 0 1 0 0 0 6 0 13 63 106 227 112 70 16 111 6 4 1 0 1 3 5 5 3 4 2 3 5 2 5 3 1
0 0 0 0 0 0 0 0 0 6 1 3 0 0 0 0 0 0 0 0 0 0 2 0 25 75 53 64 5 20 43 27 2 0 1 2 1 2 2 1 3 1 2 6 4 3 1 0 0
0 0 0 0 0 0 0 0 0 13 6 0 0 0 0 0 0 0 0 0 0 0 0 0 5 81 64 16 48 58 77 89 1 1 9 11 3 4 8 0 0 0 0 0 0 0 0 0 0
0 0 0 0 0 0 0 0 0 6 0 0 0 0 0 0 0 0 0 0 0 1 0 0 0 0 43 112 124 28 2 1 1 1 1 3 1 0 0 0 0 0 0 0 0 0 0 0 0
0 0 0 0 0 0 0 0 0 3 0 0 0 0 0 0 0 0 0 0 1 0 0 0 0 0 0 0 1 0 0 0 0 0 0 0 0 0 0 0 0 0 0 0 0 0 0 0 0
0 0 0 0 0 0 0 0 0 1 17 9 0 0 0 0 0 0 0 0 2 1 0 0 0 0 0 0 0 0 0 0 0 0 0 0 0 0 0 0 0 0 0 0 0 0 0 0 0
0 0 0 0 0 0 0 0 0 0 0 0 0 0 0 0 0 0 1 1 2 0 0 0 0 0 0 0 0 0 0 0 0 0 0 0 0 0 0 0 0 0 0 0 0 0 0 0 0
0 0 0 0 0 0 0 0 0 0 3 3 0 0 0 0 0 0 0 2 7 3 0 0 0 0 0 0 0 0 0 0 0 0 0 0 0 0 0 0 0 0 0 0 0 0 0 0 0
0 0 0 0 0 0 0 0 7 4 1 0 0 0 0 0 0 0 1 0 2 2 0 0 0 0 0 0 0 0 0 0 0 0 0 0 0 0 0 0 0 0 0 0 0 0 0 0 1
0 0 0 0 0 0 0 0 16 11 1 0 1 0 0 0 0 0 1 0 1 3 0 0 0 0 0 0 0 0 0 0 0 0 0 0 0 0 0 0 0 0 0 0 0 0 0 0 0
0 0 0 0 0 0 0 0 0 24 0 0 0 0 0 0 0 0 1 0 1 1 0 0 0 0 0 0 0 0 0 0 0 0 0 0 0 0 0 0 0 0 6 7 1 0 0 0 0
0 0 0 0 0 0 0 0 0 12 0 0 0 0 0 0 0 0 0 0 0 0 0 0 0 0 0 0 0 0 0 0 0 0 0 0 0 0 0 3 11 8 4 1 0 0 0 0 0
0 0 0 0 0 0 0 0 0 0 0 0 0 0 0 0 0 0 0 0 0 0 0 0 0 0 0 0 0 0 0 0 0 0 0 0 0 1 4 0 0 0 0 0 0 0 0 0 0
39 7 0 0 0 0 0 0 0 0 0 9 0 0 0 0 0 0 0 0 0 0 0 0 0 0 0 0 0 0 1 0 0 0 0 0 5 1 0 0 0 0 0 0 0 0 0 0 0
18 51 5 0 0 0 0 0 0 1 16 29 7 0 0 0 0 0 0 0 0 0 0 0 0 0 0 0 0 1 0 0 0 0 0 0 0 0 0 0 0 0 0 0 0 0 0 0 0
27 20 3 4 0 9 0 0 0 0 29 45 18 5 0 0 0 0 0 0 0 0 0 0 0 0 0 0 0 0 0 0 0 0 0 0 0 0 0 0 0 0 0 0 0 0 0 0 0
31 2 26 11 0 10 0 0 0 1 12 28 33 14 0 0 0 0 0 0 0 0 0 0 0 0 0 0 0 0 0 0 0 0 0 0 0 0 0 0 0 0 0 0 0 0 0 0 0
16 0 0 0 0 0 0 0 0 0 18 55 38 11 0 0 0 0 0 0 0 0 0 0 0 0 0 0 0 0 0 0 0 0 0 0 0 0 0 0 0 0 0 0 0 0 0 0 0
5 4 0 0 0 2 5 2 0 0 14 16 73 35 2 0 0 0 0 0 0 0 0 0 3 0 0 0 0 0 0 0 0 0 0 0 0 0 0 0 0 0 0 0 0 0 0 0 0
2 0 1 0 0 0 3 2 6 0 0 30 70 69 18 2 0 0 0 0 0 0 0 0 1 0 0 0 0 0 0 0 0 0 0 0 0 0 0 0 0 0 0 0 0 0 0 0 0
0 0 1 3 0 0 1 0 3 0 0 0 9 52 10 1 0 0 0 0 0 0 0 0 0 0 0 0 0 0 0 0 0 0 0 0 0 0 0 0 0 0 0 0 0 0 0 0 0
0 1 4 2 0 0 1 1 0 2 10 0 0 6 20 0 0 0 0 0 0 0 0 1 1 0 0 0 0 0 0 0 0 0 0 0 0 0 0 0 0 0 0 0 0 0 0 0 0
0 0 1 1 1 0 0 1 2 1 0 0 0 1 0 0 0 0 0 2 2 4 4 4 3 3 0 0 0 0 0 0 0 0 0 2 4 0 0 0 0 0 0 0 0 0 0 0 0
2 2 0 0 0 0 0 3 0 0 0 0 0 0 0 3 2 3 3 3 4 3 3 3 2 3 2 0 0 0 0 0 0 0 1 2 0 0 0 0 0 0 0 0 0 0 0 0 0
0 0 0 0 0 0 0 0 0 0 0 0 0 0 0 4 6 6 6 7 6 4 4 4 4 9 4 4 1 1 0 0 1 0 0 0 0 0 0 0 0 0 0 0 0 0 0 0 0
0 0 0 0 0 0 0 0 0 1 0 0 0 0 0 2 5 5 5 5 5 6 6 6 6 6 2 1 0 0 1 2 0 0 0 0 0 0 0 0 0 0 0 0 0 0 0 0 0
2 1 0 0 0 0 0 0 0 1 0 0 0 0 0 5 4 4 3 4 5 5 4 4 3 1 1 1 1 0 0 0 0 0 0 0 0 0 0 0 0 0 0 0 0 0 0 0 0
0 0 0 0 0 0 0 0 1 0 0 0 0 1 2 4 7 5 6 4 3 2 2 2 1 1 0 0 0 0 0 0 0 0 0 0 0 0 0 0 0 0 0 0 0 0 0 0 0
0 0 0 0 0 0 0 0 1 1 0 0 2 2 3 3 4 3 3 2 2 1 1 1 0 0 0 0 0 0 0 0 0 0 0 0 0 0 0 0 0 0 0 0 0 0 0 0 0
CIN
-0 -0 -0 -0 -0 -0 -16 -6 -84 -43 -50 -0 -0 -0 -0 -0 -0 -0 -0 -0 -0 -0 -0 -58 -56 -49 -26 -5 -3 -10 -3 -1 -3 -0 -0 -0 -0 -0 -1 -0 -0 -0 -0 -0 -0 -0 -0 -0 -0
-0 -0 -0 -0 -0 -0 -0 -0 -33 -52 -118 -91 -0 -0 -0 -0 -0 -0 -0 -0 -0 -0 -43 -0 -54 -27 -7 -0 -6 -2 -3 -0 -5 -0 -0 -0 -0 -0 -0 -0 -0 -0 -0 -0 -0 -0 -0 -0 -0
-0 -0 -0 -0 -0 -0 -0 -0 -0 -119 -105 -103 -0 -0 -0 -0 -0 -0 -0 -0 -0 -0 -11 -0 -69 -11 -14 -14 -6 -4 -4 -8 -0 -0 -0 -0 -0 -0 -0 -0 -0 -0 -0 -0 -0 -0 -0 -0 -0
-0 -0 -0 -0 -0 -0 -0 -0 -0 -122 -65 -0 -0 -0 -0 -0 -0 -0 -0 -0 -0 -0 -0 -0 -15 -12 -9 -40 -7 -1 -0 -2 -0 -0 -0 -0 -0 -0 -0 -0 -0 -0 -0 -0 -0 -0 -0 -0 -0
-0 -0 -0 -0 -0 -0 -0 -0 -0 -68 -0 -0 -0 -0 -0 -0 -0 -0 -0 -0 -0 -0 -0 -0 -0 -0 -3 -0 -0 -1 -1 -0 -0 -0 -0 -0 -0 -0 -0 -0 -0 -0 -0 -0 -0 -0 -0 -0 -0
-0 -0 -0 -0 -0 -0 -0 -0 -0 -32 -0 -0 -0 -0 -0 -0 -0 -0 -0 -0 -0 -0 -0 -0 -0 -0 -0 -0 -0 -0 -0 -0 -0 -0 -0 -0 -0 -0 -0 -0 -0 -0 -0 -0 -0 -0 -0 -0 -0
-0 -0 -0 -0 -0 -0 -0 -0 -0 -3 -69 -107 -0 -0 -0 -0 -0 -0 -0 -0 -0 -0 -0 -0 -0 -0 -0 -0 -0 -0 -0 -0 -0 -0 -0 -0 -0 -0 -0 -0 -0 -0 -0 -0 -0 -0 -0 -0 -0
-0 -0 -0 -0 -0 -0 -0 -0 -0 -0 -0 -0 -0 -0 -0 -0 -0 -0 -0 -0 -0 -0 -0 -0 -0 -0 -0 -0 -0 -0 -0 -0 -0 -0 -0 -0 -0 -0 -0 -0 -0 -0 -0 -0 -0 -0 -0 -0 -0
-0 -0 -0 -0 -0 -0 -0 -0 -0 -0 -76 -196 -0 -0 -0 -0 -0 -0 -0 -8 -6 -0 -0 -0 -0 -0 -0 -0 -0 -0 -0 -0 -0 -0 -0 -0 -0 -0 -0 -0 -0 -0 -0 -0 -0 -0 -0 -0 -0
-0 -0 -0 -0 -0 -0 -0 -0 -43 -35 -25 -12 -0 -0 -0 -0 -0 -0 -1 -0 -0 -0 -0 -0 -0 -0 -0 -0 -0 -0 -0 -0 -0 -0 -0 -0 -0 -0 -0 -0 -0 -0 -0 -0 -0 -0 -0 -0 -34
-0 -0 -0 -0 -0 -0 -0 -0 -107 -66 -35 -3 -128 -0 -0 -0 -0 -0 -0 -1 -0 -5 -0 -0 -0 -0 -0 -0 -0 -0 -0 -0 -0 -0 -0 -0 -0 -0 -0 -0 -0 -0 -0 -0 -0 -0 -0 -0 -0
-0 -0 -0 -0 -0 -0 -0 -0 -0 -76 -0 -0 -0 -0 -0 -0 -0 -0 -0 -0 -0 -0 -0 -0 -0 -0 -0 -0 -0 -0 -0 -0 -0 -0 -0 -0 -0 -0 -0 -0 -0 -3 -29 -31 -30 -0 -0 -0 -0
-0 -0 -0 -0 -0 -0 -0 -0 -0 -75 -0 -0 -0 -0 -0 -0 -0 -0 -0 -0 -0 -0 -0 -0 -0 -0 -0 -0 -0 -0 -0 -0 -0 -0 -0 -0 -0 -0 -0 -7 -19 -34 -21 -33 -0 -0 -0 -0 -0
-0 -0 -0 -0 -0 -0 -0 -0 -0 -0 -0 -0 -0 -0 -0 -0 -0 -0 -0 -0 -0 -0 -0 -0 -0 -0 -0 -0 -0 -0 -0 -0 -0 -0 -0 -0 -0 -15 -22 -5 -0 -0 -0 -0 -0 -0 -0 -0 -0
-0 -2 -0 -0 -0 -0 -0 -0 -0 -0 -0 -150 -0 -0 -0 -0 -0 -0 -0 -0 -0 -0 -0 -0 -0 -0 -0 -0 -0 -0 -32 -0 -0 -0 -0 -1 -21 -36 -0 -0 -0 -0 -0 -0 -0 -0 -0 -0 -0
-2 -0 -2 -0 -0 -0 -0 -0 -0 -45 -151 -140 -241 -0 -0 -0 -0 -0 -0 -0 -0 -0 -0 -0 -0 -0 -0 -0 -5 -43 -0 -0 -0 -0 -0 -0 -0 -0 -0 -0 -0 -0 -0 -0 -0 -0 -0 -0 -0
-3 -2 -0 -6 -0 -21 -0 -0 -0 -0 -130 -122 -204 -294 -0 -0 -0 -0 -0 -0 -0 -0 -0 -0 -0 -0 -0 -2 -0 -0 -0 -0 -0 -0 -0 -0 -0 -0 -0 -0 -0 -0 -0 -0 -0 -0 -0 -0 -0
-2 -0 -0 -0 -0 -14 -0 -0 -0 -124 -106 -112 -186 -258 -0 -0 -0 -0 -0 -0 -0 -0 -0 -0 -0 -0 -0 -0 -0 -0 -0 -0 -0 -0 -0 -0 -0 -0 -0 -0 -0 -0 -0 -0 -0 -0 -0 -0 -0
-9 -0 -0 -0 -0 -0 -2 -0 -0 -0 -91 -94 -153 -236 -111 -0 -0 -0 -0 -0 -0 -0 -0 -0 -0 -0 -0 -0 -0 -0 -0 -0 -0 -0 -0 -0 -0 -0 -0 -0 -0 -0 -0 -0 -0 -0 -0 -0 -0
-20 -4 -0 -0 -0 -0 -0 -0 -0 -0 -60 -57 -91 -172 -137 -0 -0 -0 -0 -0 -0 -0 -0 -0 -37 -0 -0 -0 -0 -0 -0 -0 -0 -0 -0 -0 -0 -0 -0 -0 -0 -0 -0 -0 -0 -0 -0 -0 -0
-0 -0 -0 -0 -0 -0 -0 -0 -4 -0 -0 -60 -68 -119 -201 -288 -0 -0 -0 -0 -0 -0 -30 -0 -58 -0 -0 -0 -0 -0 -0 -0 -0 -0 -0 -0 -0 -0 -0 -0 -0 -0 -0 -0 -0 -0 -0 -0 -0
-0 -0 -0 -0 -0 -0 -0 -0 -0 -0 -0 -0 -70 -51 -114 -69 -0 -0 -0 -0 -0 -0 -0 -0 -0 -0 -0 -0 -0 -0 -0 -0 -0 -0 -0 -0 -0 -0 -0 -0 -0 -0 -0 -0 -0 -0 -0 -0 -0
-2 -1 -0 -0 -0 -0 -0 -0 -0 -1 -0 -0 -0 -66 -87 -0 -0 -0 -0 -0 -0 -0 -0 -0 -0 -0 -0 -0 -0 -0 -0 -0 -0 -0 -0 -0 -0 -0 -0 -0 -0 -0 -0 -0 -0 -0 -0 -0 -0
-2 -0 -0 -0 -0 -0 -0 -0 -2 -0 -0 -0 -0 -17 -0 -0 -0 -0 -0 -0 -0 -0 -0 -0 -0 -0 -0 -0 -0 -0 -0 -0 -0 -0 -0 -0 -0 -0 -0 -0 -0 -0 -0 -0 -0 -0 -0 -0 -0
-0 -0 -0 -0 -0 -0 -0 -0 -0 -0 -0 -0 -0 -0 -0 -0 -0 -0 -0 -0 -0 -0 -0 -0 -0 -0 -0 -0 -0 -0 -0 -0 -0 -0 -0 -0 -0 -0 -0 -0 -0 -0 -0 -0 -0 -0 -0 -0 -0
-0 -1 -0 -0 -0 -0 -0 -0 -0 -0 -0 -0 -0 -0 -0 -0 -0 -0 -0 -0 -0 -0 -0 -0 -0 -0 -0 -0 -0 -0 -0 -0 -0 -0 -0 -0 -0 -0 -0 -0 -0 -0 -0 -0 -0 -0 -0 -0 -0
-0 -0 -0 -0 -0 -0 -0 -0 -0 -0 -0 -0 -0 -0 -0 -0 -0 -0 -0 -0 -0 -0 -0 -0 -0 -0 -0 -0 -0 -0 -0 -0 -0 -0 -0 -0 -0 -0 -0 -0 -0 -0 -0 -0 -0 -0 -0 -0 -0
-0 -0 -0 -0 -0 -0 -0 -0 -0 -0 -0 -0 -0 -0 -0 -0 -0 -0 -0 -0 -0 -0 -0 -0 -0 -0 -0 -0 -0 -0 -0 -0 -0 -0 -0 -0 -0 -0 -0 -0 -0 -0 -0 -0 -0 -0 -0 -0 -0
-0 -0 -0 -0 -0 -0 -0 -0 -0 -0 -0 -0 -0 -0 -0 -0 -0 -0 -0 -0 -0 -0 -0 -0 -0 -0 -0 -0 -0 -0 -0 -0 -0 -0 -0 -0 -0 -0 -0 -0 -0 -0 -0 -0 -0 -0 -0 -0 -0
-0 -0 -0 -0 -0 -0 -0 -0 -0 -0 -0 -0 -0 -0 -0 -0 -0 -0 -0 -0 -0 -0 -0 -0 -0 -0 -0 -0 -0 -0 -0 -0 -0 -0 -0 -0 -0 -0 -0 -0 -0 -0 -0 -0 -0 -0 -0 -0 -0
Wind_Speed
22 19 15 15 19 20 22 21 20 14 16 18 13 17 18 16 18 17 13 16 17 18 21 14 5 9 14 22 22 20 19 20 19 20 20 20 20 20 20 20 21 21 22 22 22 23 23 23 23
23 17 14 16 22 25 25 21 23 19 14 9 11 15 16 17 16 11 5 5 11 12 10 7 5 6 7 18 19 18 19 18 17 18 19 19 19 19 20 20 20 20 21 22 22 23 23 23 23
20 16 16 20 23 27 25 21 22 18 9 16 15 15 17 18 15 9 5 7 9 7 7 7 6 8 10 13 14 15 17 16 15 16 17 17 17 18 18 19 19 20 21 21 22 23 23 23 23
20 18 16 25 28 26 24 20 17 12 20 18 14 16 17 21 5 7 10 9 8 6 6 6 6 9 12 13 14 15 14 15 14 15 15 15 16 16 17 17 18 19 20 21 22 22 23 24 24
19 18 22 27 29 25 23 19 13 14 19 18 18 18 16 10 9 7 10 9 8 6 5 6 6 7 10 13 13 13 13 13 14 14 15 15 16 16 17 18 18 19 20 21 21 22 23 23 24
20 18 25 32 29 26 23 19 18 18 18 18 18 15 17 12 4 6 8 8 6 8 6 5 4 5 6 8 9 9 11 12 13 14 14 14 15 16 16 17 18 19 20 20 21 22 23 23 24
21 23 26 24 31 27 22 18 21 19 18 21 13 18 19 10 4 5 5 4 4 4 5 4 3 2 4 5 7 8 9 10 11 12 13 14 15 16 17 17 18 18 19 21 21 22 23 24 25
20 22 28 25 24 31 20 19 20 19 21 14 14 20 20 12 2 3 2 2 3 3 3 2 1 2 3 4 6 8 9 10 10 11 12 13 14 15 16 17 17 18 19 20 21 22 23 24 26
19 27 31 29 26 29 19 20 18 17 16 18 16 16 16 4 5 4 4 3 4 4 3 2 2 3 3 4 5 7 8 9 10 11 12 13 14 14 15 15 16 17 19 20 21 23 24 25 26
25 29 28 24 28 29 27 22 19 20 18 20 20 18 9 6 7 7 7 7 6 6 5 3 1 2 3 4 5 6 7 8 9 10 11 12 13 13 14 15 15 16 18 19 20 22 23 24 25
26 36 29 32 28 30 32 28 19 22 25 19 16 11 6 7 9 8 8 7 7 6 7 5 2 0 2 3 4 5 6 7 8 9 10 11 11 12 13 14 15 16 17 18 19 21 23 26 27
35 29 31 34 30 28 30 31 27 23 25 22 20 8 6 9 10 11 9 9 8 7 7 5 4 2 2 2 2 4 5 6 8 9 9 10 11 11 12 13 15 17 18 19 20 22 25 27 28
34 31 31 35 36 34 34 36 33 30 23 21 16 12 10 10 11 12 11 9 8 8 8 7 4 4 3 1 2 2 4 6 8 9 10 10 10 11 13 14 16 19 19 20 22 24 26 28 28
27 30 34 36 37 33 34 37 33 33 24 17 14 13 13 11 12 13 12 12 11 8 8 6 5 4 5 4 2 3 5 8 10 11 11 11 11 12 12 15 17 19 20 21 22 25 27 28 28
34 40 36 37 40 39 31 43 37 32 25 23 18 15 14 14 12 13 12 12 11 10 9 8 5 4 4 4 3 5 7 9 10 11 12 12 13 12 14 16 18 20 21 21 23 24 26 28 29
35 36 44 37 37 39 34 49 39 30 27 26 24 19 16 15 13 13 12 11 10 9 10 9 7 5 3 3 5 7 8 9 10 11 13 14 14 15 16 17 19 21 23 23 24 25 26 28 30
34 43 46 41 38 39 42 44 42 31 28 27 27 23 20 18 15 15 13 12 11 11 10 9 8 6 5 5 5 6 8 10 11 12 13 14 15 16 16 18 20 21 22 23 24 26 27 30 31
45 42 43 44 39 42 48 52 42 33 31 28 28 28 24 20 18 16 14 13 12 11 10 9 8 6 5 5 5 6 8 10 12 13 14 15 16 17 17 19 21 22 24 25 24 27 28 30 32
48 45 42 39 36 42 53 55 51 38 37 31 30 31 28 25 20 17 16 14 13 12 10 10 8 7 6 6 7 8 8 9 11 13 15 16 17 17 18 19 21 23 24 25 27 25 30 33 32
47 49 50 45 36 39 45 58 48 44 38 35 33 32 31 25 21 18 17 16 14 13 13 12 11 9 9 8 9 11 8 10 12 13 15 17 18 18 18 19 22 23 24 26 29 29 28 29 31
39 51 52 53 43 43 44 57 58 46 40 40 35 32 30 27 24 21 18 18 16 15 14 13 12 10 10 8 7 8 8 10 13 13 14 16 17 17 19 19 22 25 24 28 30 30 29 28 29
47 34 40 44 44 52 32 45 60 53 50 45 38 33 30 27 24 22 21 19 17 14 13 13 13 12 10 9 8 8 11 9 11 11 12 15 17 19 20 21 24 25 26 28 28 27 27 25 26
32 32 34 40 44 44 48 46 49 49 54 43 38 35 32 27 23 22 20 18 17 16 14 12 11 11 11 9 9 9 9 7 6 8 12 15 17 19 23 23 25 25 23 24 24 24 25 25 25
33 34 35 41 40 49 53 45 46 49 50 43 36 30 31 28 26 23 19 20 18 14 13 13 11 10 8 8 9 8 6 5 5 8 12 15 18 21 22 22 21 21 21 22 23 24 25 25 25
34 38 44 46 38 51 45 41 45 41 43 40 37 29 26 26 26 24 21 18 18 17 15 13 11 11 10 8 8 4 4 5 3 9 13 15 18 20 19 19 20 20 21 22 23 24 25 25 26
31 39 41 42 36 36 38 38 34 34 36 42 31 30 27 22 24 21 19 18 17 15 15 13 11 9 9 7 5 4 6 7 10 12 14 15 16 16 17 18 19 20 20 21 22 23 24 25 26
27 38 31 32 30 32 27 30 27 25 26 30 33 30 26 23 21 22 18 15 17 14 12 11 7 7 6 3 3 5 6 8 11 12 13 13 14 15 16 18 19 20 21 22 23 24 25 25 26
22 21 31 25 26 28 30 28 26 30 28 25 30 30 28 24 20 18 17 15 14 13 11 7 7 6 5 4 4 7 9 10 11 12 12 13 14 15 16 17 19 20 21 22 23 24 25 26 27
16 23 21 19 20 24 25 24 22 30 29 26 26 28 28 28 26 24 22 17 15 10 11 8 3 5 6 6 6 6 8 9 10 11 11 12 13 15 16 18 19 21 21 22 24 25 26 27 28
16 17 24 22 18 19 21 21 22 24 21 21 23 25 24 23 23 20 18 17 15 9 8 7 7 7 5 6 6 7 8 8 9 10 11 12 14 15 16 18 20 21 22 23 25 26 27 28 29
Wind_Direction
292 285 296 289 268 267 257 258 250 271 265 246 275 261 244 262 240 242 254 223 102 104 113 89 31 258 227 123 119 107 98 90 76 59 56 54 51 50 49 45 40 37 34 31 29 27 25 25 26
290 286 298 284 263 256 255 261 250 264 273 311 294 284 274 274 272 304 2 61 93 92 83 68 20 322 345 107 109 99 99 86 65 55 56 55 54 51 49 45 39 33 30 30 29 26 24 23 22
297 291 283 272 264 256 258 264 261 266 283 269 280 288 279 273 281 72 316 89 93 82 78 68 40 25 45 80 90 88 94 79 62 47 46 49 49 46 41 34 32 31 30 29 26 24 22 19 15
290 283 288 263 258 262 263 270 273 263 263 278 287 288 284 259 31 312 93 99 99 86 79 77 60 49 58 74 82 86 80 72 53 46 44 38 44 40 33 27 28 30 29 27 25 23 21 19 16
292 282 268 263 261 267 268 270 272 268 270 271 274 279 285 297 324 81 101 104 106 97 82 79 73 63 64 72 76 76 71 57 49 53 50 46 42 35 34 36 34 32 29 27 26 23 20 14 10
286 281 268 259 263 268 271 271 268 270 276 272 275 284 283 298 9 102 106 109 108 107 93 77 70 63 59 64 65 59 56 52 55 53 46 42 40 40 39 37 34 31 29 28 27 23 18 9 6
284 277 270 269 262 266 270 272 267 269 273 269 286 278 278 285 298 122 118 110 121 117 107 81 62 22 35 46 51 51 47 48 47 47 47 46 47 46 42 38 34 31 29 30 28 23 18 7 360
286 281 272 269 265 263 274 270 275 269 268 280 280 276 273 266 181 154 162 147 145 148 125 97 17 2 346 13 37 47 52 49 38 36 37 37 38 40 41 41 40 38 33 26 20 18 16 9 2
282 273 268 269 267 266 273 270 277 280 274 270 275 286 291 178 170 196 217 193 186 197 161 127 90 56 41 23 30 42 49 50 50 47 45 43 44 42 39 35 30 25 19 14 14 9 3 2 4
266 266 268 274 276 273 267 267 263 268 266 267 270 281 291 179 191 194 208 203 198 202 217 195 138 67 49 38 49 51 55 54 51 44 48 50 51 50 48 43 43 44 31 26 23 16 12 12 11
267 263 267 269 280 277 266 264 263 262 260 266 263 268 251 204 216 207 207 211 196 192 232 234 232 345 42 47 50 49 42 41 28 29 38 40 37 36 35 40 37 32 29 25 23 18 12 6 2
266 267 266 267 272 278 274 265 261 258 265 264 261 244 218 220 216 216 218 217 212 212 225 229 245 264 305 351 56 56 49 34 14 11 17 21 18 25 32 30 23 18 16 16 14 9 3 359 358
265 265 266 267 268 272 272 264 258 257 264 266 255 242 225 227 227 233 228 222 213 214 224 224 230 256 282 291 327 20 17 5 353 352 353 356 7 13 8 7 3 1 5 4 3 360 356 354 354
276 264 263 263 264 268 269 264 260 255 258 257 238 236 237 221 217 229 228 231 226 221 207 214 216 239 274 275 289 325 338 333 328 334 338 348 353 356 4 359 357 355 356 357 356 354 352 352 352
272 269 267 256 256 260 272 260 258 258 250 248 240 236 237 237 226 219 220 224 216 223 217 218 221 232 261 268 286 307 314 321 328 333 338 341 345 354 353 351 350 350 350 352 352 353 352 350 350
270 266 261 251 251 255 257 256 256 256 247 245 244 240 235 234 225 228 223 221 215 215 213 219 235 224 242 256 289 301 310 319 325 330 334 337 340 344 345 346 344 345 345 347 347 348 347 347 346
267 264 257 263 250 248 247 257 255 253 247 242 241 240 239 239 234 233 223 227 215 219 218 222 228 222 254 284 298 306 312 317 322 328 332 338 340 343 345 344 343 344 345 345 345 345 343 341 343
262 265 262 261 251 246 246 250 253 251 245 241 241 240 240 237 234 228 223 229 225 225 220 216 227 232 248 275 297 308 313 316 321 327 330 335 339 342 343 343 342 343 343 343 344 344 343 342 341
264 263 263 263 262 255 241 247 246 254 245 242 242 241 241 240 239 235 228 228 231 229 217 220 225 231 240 263 279 291 301 313 322 329 331 334 337 339 341 342 344 344 343 345 343 341 338 340 340
262 259 256 256 268 260 248 243 247 243 246 245 240 242 241 240 233 230 231 229 227 232 234 234 236 229 246 258 275 287 296 313 321 327 332 334 337 340 344 347 347 346 343 342 342 339 339 340 342
265 254 252 250 260 259 261 246 241 246 250 245 245 243 241 235 231 229 229 233 234 236 240 241 245 241 253 257 271 288 302 312 313 324 331 336 344 348 348 348 351 348 343 339 339 338 338 340 342
253 265 254 246 255 251 249 253 241 241 245 242 240 239 239 236 231 231 234 235 235 238 246 248 252 252 254 255 260 262 283 290 310 327 338 341 342 345 345 345 342 342 342 337 343 347 348 349 346
263 252 249 239 252 255 249 257 251 233 239 238 235 233 235 234 229 227 231 235 241 245 248 251 255 257 257 258 259 271 284 296 312 335 337 338 338 340 344 343 342 343 350 349 355 358 359 358 357
255 249 247 244 256 251 246 253 251 230 230 234 232 234 233 232 232 233 235 238 240 245 251 253 257 265 259 258 273 281 288 294 313 344 337 336 339 335 348 354 356 359 1 1 2 4 3 2 2
248 243 240 242 248 254 260 251 245 238 227 227 231 228 233 234 232 232 231 235 241 244 249 254 261 273 257 281 283 287 291 305 318 335 337 338 340 342 352 359 3 6 4 3 5 5 4 3 1
246 235 233 231 246 264 247 243 245 245 241 229 231 230 231 233 233 232 236 239 240 245 249 258 258 265 279 297 324 299 325 318 317 340 339 348 351 356 359 0 7 9 8 8 8 6 5 4 2
246 228 233 244 268 265 257 252 251 245 238 225 225 221 229 231 230 233 234 238 243 244 249 254 266 281 279 301 332 329 355 327 343 354 354 1 3 2 4 3 6 9 8 7 5 3 3 2 0
255 229 224 246 257 262 259 242 251 240 236 229 225 226 227 230 229 232 237 234 244 246 249 249 264 287 285 300 317 327 323 341 353 359 1 359 356 3 6 8 7 6 6 5 4 2 0 358 356
271 239 237 251 269 268 266 252 272 250 241 232 232 232 231 235 238 239 242 246 258 243 242 251 261 292 281 307 356 354 350 355 356 357 7 11 12 11 8 6 6 4 3 2 0 358 356 353 352
278 253 244 249 264 282 274 262 273 253 243 237 236 235 237 238 239 239 243 248 250 235 227 264 282 265 307 342 351 356 357 0 3 10 10 12 10 9 8 6 4 2 0 358 354 351 351 351 351